This is the latest recevied weather packets stored in our database for station/object N5RPG. If no packets are shown the sender has not sent any weather packets the latest 10 day(s).
| Time | Temp. | Humidity | Pressure | Rain* | Wind** | Luminosity | Snow |
|---|---|---|---|---|---|---|---|
| 1778194856 | 21.11° C | 65% | 1016 hPa | 0 mm | - | 97 W/m² | - |
| 1778194551 | 21.11° C | 64% | 1016 hPa | 0 mm | - | 103 W/m² | - |
| 1778194248 | 21.11° C | 64% | 1016 hPa | 0 mm | - | 110 W/m² | - |
| 1778193944 | 21.67° C | 63% | 1016.3 hPa | 0 mm | - | 116 W/m² | - |
| 1778193640 | 21.67° C | 61% | 1016.5 hPa | 0 mm | - | 138 W/m² | - |
| 1778193337 | 21.67° C | 62% | 1016.5 hPa | 0 mm | - | 64 W/m² | - |
| 1778193034 | 21.67° C | 60% | 1016.5 hPa | 0 mm | - | 98 W/m² | - |
| 1778192731 | 21.67° C | 61% | 1016.6 hPa | 0 mm | - | 153 W/m² | - |
| 1778192427 | 21.67° C | 60% | 1016.5 hPa | 0 mm | - | 154 W/m² | - |
| 1778192123 | 21.67° C | 61% | 1016.8 hPa | 0 mm | - | 144 W/m² | - |
| 1778191821 | 21.67° C | 60% | 1016.7 hPa | 0 mm | - | 148 W/m² | - |
| 1778191518 | 21.67° C | 59% | 1016.4 hPa | 0 mm | - | 152 W/m² | - |
| 1778191215 | 22.22° C | 57% | 1016.2 hPa | 0 mm | - | 170 W/m² | - |
| 1778190911 | 22.78° C | 56% | 1016.5 hPa | 0 mm | - | 203 W/m² | - |
| 1778190609 | 22.78° C | 55% | 1016.3 hPa | 0 mm | - | 458 W/m² | - |
| 1778190306 | 22.78° C | 54% | 1016.4 hPa | 0 mm | - | 525 W/m² | - |
| 1778190001 | 22.78° C | 56% | 1016.2 hPa | 0 mm | - | 408 W/m² | - |
| 1778189698 | 22.78° C | 56% | 1016.4 hPa | 0 mm | - | 288 W/m² | - |
| 1778189395 | 22.78° C | 57% | 1016.5 hPa | 0 mm | - | 617 W/m² | - |
| 1778189090 | 22.22° C | 58% | 1016.4 hPa | 0 mm | - | 493 W/m² | - |
| 1778188788 | 21.67° C | 57% | 1016.6 hPa | 0 mm | - | 107 W/m² | - |
| 1778188484 | 21.67° C | 59% | 1016.6 hPa | 0 mm | - | 272 W/m² | - |
| 1778188181 | 22.22° C | 59% | 1016.6 hPa | 0 mm | - | 227 W/m² | - |
| 1778187878 | 22.22° C | 58% | 1016.8 hPa | 0 mm | - | 215 W/m² | - |
| 1778187575 | 22.78° C | 57% | 1016.8 hPa | 0 mm | - | 230 W/m² | - |
* Rain latest hour (hover to see other rain measurements)
** Current wind speed in m/s (hover to see current wind gust speed)